Regional Weather Roundup
Issued by NWS

Home | Current Version | Previous Version | Text Only | Print | Product List | Glossary On
Versions: 1 2 3 4 5 6 7 8 9 10 11 12 13 14 15 16 17 18 19 20 21 22 23 24 25 26 27 28 29 30 31 32 33 34 35 36 37 38 39 40 41 42 43 44 45 46 47 48 49 50
000
ASUS45 KSLC 251510
RWRUT

UTAH REGIONAL WEATHER ROUNDUP
NATIONAL WEATHER SERVICE SALT LAKE CITY UT
800 AM MST SUN FEB 25 2018

UTZ001>011-023>025-251600-

NORTHERN UTAH

CITY           SKY/WX    TMP DP  RH WIND       PRES   REMARKS
BRIGHAM CITY   MOCLDY    21  18  85 CALM      30.17R
HILL AFB       CLOUDY    22  14  71 W5        30.15R WCI  15
LOGAN          PTCLDY    20   9  62 N12       30.13R WCI   8
OGDEN          CLOUDY    23  14  68 SW12      30.15R WCI  12
SALT LAKE CITY MOCLDY    27  13  55 SW5       30.19R WCI  22
WENDOVER       CLEAR     22   6  50 SW7       30.19R WCI  13
HEBER CITY       N/A      3   0  85 CALM      30.09R
WEST JORDAN    CLOUDY    20  15  79 CALM      30.18R

$$

UTZ011>015-024>027-251600-

CENTRAL/NORTHEAST UTAH

CITY           SKY/WX    TMP DP  RH WIND       PRES   REMARKS
PROVO AIRPORT  PTCLDY    13  10  88 SE5       30.20R WCI   5
MOAB/CANYONLAN SUNNY     23  15  71 CALM      30.12R
DELTA          PTCLDY     3   0  85 S9        30.21R WCI -11
PRICE          CLEAR     20   7  57 NW8       30.07R WCI  10
RICHFIELD      CLEAR     16   9  73 S1        30.20R
VERNAL         MOSUNNY    4  -2  76 NW3       30.08R

$$

UTZ013>016-019>022-027-251600-

SOUTHERN UTAH

CITY           SKY/WX    TMP DP  RH WIND       PRES   REMARKS
BRYCE CANYON   CLEAR     11   7  84 N9        30.08R WCI  -2
CEDAR CITY     CLEAR     13  11  92 CALM      30.17R
MILFORD        CLEAR      7   6  96 SW3       30.20R
ST GEORGE      MOSUNNY   32  18  56 S5        30.26R WCI  27
HANKSVILLE     SUNNY     19  12  73 S5        30.19R WCI  13
KANAB          CLEAR     21  14  73 E3        30.24R
BLANDING         N/A     25  13  60 NW9       30.15R WCI  15

$$

REGIONAL REPORTS     COLORADO/ARIZONA

CITY           SKY/WX    TMP DP  RH WIND       PRES   REMARKS
CRAIG, CO      MOSUNNY   -2  -3  96 CALM      30.01R
GRAND JUNCTION SUNNY     23  20  88 E7        30.09R WCI  15
RIFLE, CO      MOSUNNY   15  11  83 CALM      30.06R
MONTROSE, CO   LGT SNOW  21  18  88 CALM      30.09R FOG
CORTEZ, CO     MOSUNNY   22  17  81 E6        30.08R WCI  14
COLORADO CITY    N/A     27  18  69 SE5       30.21R WCI  21
PAGE, AZ       SUNNY     32  15  49 NW3       30.17R
GRAND CANYON   MOSUNNY   13  10  88 CALM      30.13R
KINGMAN, AZ    CLEAR     30   5  34 VRB5      30.23R WCI  25
FLAGSTAFF, AZ  MOSUNNY   10   5  80 W3        30.10R

$$

REGIONAL REPORTS    NEVADA/IDAHO/WYOMING

CITY           SKY/WX    TMP DP  RH WIND       PRES   REMARKS
LAS VEGAS, NV  CLEAR     41  10  28 NE15      30.27R
ELY, NY        PTCLDY    -2  -6  83 S7        30.18R WCI -15
ELKO, NV       PTCLDY     5   3  91 CALM      30.20S
POCATELLO, ID  PTCLDY    19  11  70 SW20      30.09R WCI   3
BURLEY, ID     PTCLDY    17   9  70 S12       30.12R WCI   4
EVANSTON, WY   MOCLDY    10   8  92 SW13      29.98R WCI  -5
ROCK SPRINGS,  PTSUNNY   14   6  70 W28G35    29.92R WCI  -6

$$



USA.gov is the U.S. government's official web portal to all federal, state and local government web resources and services.